BOX7766 TNCC-SVMI

Flight info

Callsign BOX7766
Flight time 0h 33m
Altitude 19000
Route BON1K IMOMA DCT VUDVI
Aircraft B77L/H-VW/N

Departure

Time 2026-04-30 13:58
Airport Hato International Airport (TNCC)

Arrival

Time 2026-04-30 14:32
Airport Maiquetía Simón Bolívar International Airport (SVMI)
Time Latitude Longitude Altitude Speed Heading
2026-04-30 13:42 12.18849 -68.96889 47 ft 0 kts 12°
2026-04-30 13:54 12.18850 -68.96889 47 ft 1 kts 12°
2026-04-30 13:54 12.18878 -68.96889 45 ft 6 kts 337°
2026-04-30 13:55 12.18901 -68.96925 45 ft 7 kts 285°
2026-04-30 13:55 12.18914 -68.96971 44 ft 7 kts 285°
2026-04-30 13:55 12.18938 -68.97066 45 ft 23 kts 282°
2026-04-30 13:55 12.18977 -68.97247 44 ft 27 kts 282°
2026-04-30 13:56 12.19016 -68.97432 44 ft 27 kts 282°
2026-04-30 13:56 12.19053 -68.97604 44 ft 19 kts 283°
2026-04-30 13:56 12.19140 -68.97633 44 ft 15 kts 33°
2026-04-30 13:56 12.19148 -68.97628 44 ft 0 kts 33°
2026-04-30 13:57 12.19155 -68.97623 44 ft 7 kts 33°
2026-04-30 13:57 12.19209 -68.97513 44 ft 27 kts 94°
2026-04-30 13:57 12.19146 -68.97199 44 ft 81 kts 101°
2026-04-30 13:57 12.19038 -68.96675 47 ft 141 kts 102°
2026-04-30 13:58 12.18707 -68.95010 541 ft 197 kts 102°
2026-04-30 13:58 12.18174 -68.92529 2552 ft 185 kts 103°
2026-04-30 13:58 12.17873 -68.91129 2777 ft 218 kts 104°
2026-04-30 13:59 12.17543 -68.89531 3323 ft 236 kts 101°
2026-04-30 13:59 12.17395 -68.88394 3898 ft 242 kts 98°
2026-04-30 13:59 12.17236 -68.86672 4632 ft 254 kts 98°
2026-04-30 13:59 12.17085 -68.84842 5443 ft 260 kts 98°
2026-04-30 14:00 12.16932 -68.82986 6367 ft 261 kts 98°
2026-04-30 14:00 12.16610 -68.79211 8047 ft 267 kts 96°
2026-04-30 14:00 12.16445 -68.77335 8927 ft 266 kts 96°
2026-04-30 14:01 12.16277 -68.75440 9735 ft 269 kts 95°
2026-04-30 14:01 12.16103 -68.73494 10269 ft 281 kts 95°
2026-04-30 14:01 12.15919 -68.71458 10699 ft 299 kts 95°
2026-04-30 14:01 12.15719 -68.69255 10855 ft 325 kts 95°
2026-04-30 14:02 12.15502 -68.66867 11038 ft 349 kts 95°
2026-04-30 14:02 12.15273 -68.64355 11400 ft 364 kts 95°
2026-04-30 14:02 12.15037 -68.61759 12198 ft 368 kts 96°
2026-04-30 14:02 12.14798 -68.59130 12878 ft 375 kts 96°
2026-04-30 14:03 12.14552 -68.56444 13535 ft 382 kts 96°
2026-04-30 14:03 12.14304 -68.53716 14259 ft 385 kts 96°
2026-04-30 14:03 12.14053 -68.50979 14888 ft 390 kts 97°
2026-04-30 14:03 12.13526 -68.48257 15252 ft 394 kts 114°
2026-04-30 14:04 12.12189 -68.45857 15841 ft 398 kts 128°
2026-04-30 14:04 12.10209 -68.43880 16391 ft 399 kts 142°
2026-04-30 14:04 12.08001 -68.42104 16752 ft 409 kts 142°
2026-04-30 14:04 12.05738 -68.40295 17260 ft 415 kts 142°
2026-04-30 14:05 12.03463 -68.38474 18050 ft 415 kts 143°
2026-04-30 14:05 12.01173 -68.36637 18504 ft 420 kts 143°
2026-04-30 14:05 11.98880 -68.34785 18971 ft 422 kts 143°
2026-04-30 14:05 11.96549 -68.32899 18978 ft 431 kts 142°
2026-04-30 14:06 11.94186 -68.30981 19004 ft 435 kts 142°
2026-04-30 14:06 11.89481 -68.27150 18992 ft 431 kts 142°
2026-04-30 14:07 11.84760 -68.23304 19005 ft 437 kts 142°
2026-04-30 14:07 11.82380 -68.21365 19007 ft 438 kts 142°
2026-04-30 14:07 11.80023 -68.19446 19010 ft 439 kts 142°
2026-04-30 14:08 11.75263 -68.15572 18997 ft 436 kts 142°
2026-04-30 14:08 11.72892 -68.13643 18992 ft 434 kts 142°
2026-04-30 14:08 11.68196 -68.09825 18997 ft 429 kts 142°
2026-04-30 14:09 11.65859 -68.07926 18992 ft 428 kts 142°
2026-04-30 14:09 11.63546 -68.06047 18989 ft 428 kts 142°
2026-04-30 14:09 11.58891 -68.02263 19002 ft 427 kts 142°
2026-04-30 14:10 11.56565 -68.00375 18996 ft 427 kts 142°
2026-04-30 14:10 11.54238 -67.98486 18991 ft 427 kts 142°
2026-04-30 14:10 11.51908 -67.96595 19002 ft 427 kts 141°
2026-04-30 14:10 11.49584 -67.94710 18993 ft 427 kts 141°
2026-04-30 14:11 11.47255 -67.92820 18991 ft 429 kts 141°
2026-04-30 14:11 11.44919 -67.90924 19000 ft 430 kts 141°
2026-04-30 14:11 11.42577 -67.89024 18994 ft 430 kts 141°
2026-04-30 14:11 11.40234 -67.87124 18992 ft 431 kts 141°
2026-04-30 14:12 11.37915 -67.85243 19003 ft 431 kts 141°
2026-04-30 14:12 11.35579 -67.83350 18996 ft 429 kts 141°
2026-04-30 14:12 11.33238 -67.81453 18989 ft 427 kts 141°
2026-04-30 14:12 11.30920 -67.79575 18987 ft 425 kts 141°
2026-04-30 14:13 11.28602 -67.77698 18982 ft 424 kts 141°
2026-04-30 14:13 11.26285 -67.75821 18985 ft 425 kts 141°
2026-04-30 14:13 11.23982 -67.73955 18982 ft 418 kts 141°
2026-04-30 14:13 11.21741 -67.72140 18976 ft 406 kts 141°
2026-04-30 14:14 11.19560 -67.70373 18844 ft 397 kts 141°
2026-04-30 14:14 11.17409 -67.68634 18539 ft 392 kts 141°
2026-04-30 14:14 11.15278 -67.66911 18131 ft 390 kts 141°
2026-04-30 14:14 11.13061 -67.65436 17615 ft 385 kts 154°
2026-04-30 14:15 11.10525 -67.64564 17167 ft 383 kts 167°
2026-04-30 14:15 11.07884 -67.64247 16708 ft 379 kts 179°
2026-04-30 14:15 11.05254 -67.64353 16261 ft 376 kts 181°
2026-04-30 14:15 11.02678 -67.64499 15821 ft 374 kts 181°
2026-04-30 14:16 11.00084 -67.64649 15378 ft 372 kts 181°
2026-04-30 14:16 10.97505 -67.64790 14921 ft 371 kts 181°
2026-04-30 14:16 10.94933 -67.64923 14482 ft 369 kts 180°
2026-04-30 14:16 10.92366 -67.65048 14031 ft 368 kts 180°
2026-04-30 14:17 10.89811 -67.65168 13560 ft 366 kts 180°
2026-04-30 14:17 10.87270 -67.65284 13093 ft 364 kts 180°
2026-04-30 14:17 10.84748 -67.65399 12634 ft 362 kts 180°
2026-04-30 14:17 10.82242 -67.65513 12197 ft 359 kts 180°
2026-04-30 14:18 10.79747 -67.65625 11670 ft 359 kts 180°
2026-04-30 14:18 10.77250 -67.65738 11210 ft 357 kts 180°
2026-04-30 14:18 10.72385 -67.65960 10777 ft 340 kts 180°
2026-04-30 14:19 10.67803 -67.66168 10487 ft 318 kts 180°
2026-04-30 14:19 10.65623 -67.66267 10358 ft 308 kts 180°
2026-04-30 14:19 10.63550 -67.66361 10234 ft 296 kts 179°
2026-04-30 14:20 10.61591 -67.66109 10106 ft 276 kts 155°
2026-04-30 14:20 10.60045 -67.65089 9995 ft 259 kts 132°
2026-04-30 14:20 10.58342 -67.61834 9424 ft 269 kts 98°
2026-04-30 14:21 10.58295 -67.59943 9138 ft 274 kts 89°
2026-04-30 14:21 10.58378 -67.57998 8803 ft 276 kts 89°
2026-04-30 14:21 10.58555 -67.54148 8145 ft 268 kts 89°
2026-04-30 14:22 10.58635 -67.52262 7843 ft 265 kts 89°
2026-04-30 14:22 10.58780 -67.48517 7249 ft 266 kts 89°
2026-04-30 14:22 10.58849 -67.46644 6943 ft 264 kts 89°
2026-04-30 14:23 10.59037 -67.42959 6343 ft 264 kts 87°
2026-04-30 14:23 10.59262 -67.39220 5747 ft 262 kts 90°
2026-04-30 14:24 10.59382 -67.35570 5111 ft 253 kts 90°
2026-04-30 14:24 10.59434 -67.33803 4790 ft 247 kts 91°
2026-04-30 14:25 10.59533 -67.30403 4266 ft 232 kts 90°
2026-04-30 14:25 10.59624 -67.27299 4008 ft 201 kts 90°
2026-04-30 14:26 10.59702 -67.24608 3980 ft 187 kts 91°
2026-04-30 14:26 10.59740 -67.23305 3971 ft 182 kts 90°
2026-04-30 14:26 10.59812 -67.20793 3883 ft 179 kts 89°
2026-04-30 14:27 10.59849 -67.19540 3682 ft 175 kts 88°
2026-04-30 14:27 10.59884 -67.18318 3464 ft 171 kts 88°
2026-04-30 14:27 10.59920 -67.17131 3251 ft 171 kts 87°
2026-04-30 14:28 10.59991 -67.14698 2771 ft 171 kts 88°
2026-04-30 14:28 10.60027 -67.13498 2528 ft 169 kts 88°
2026-04-30 14:28 10.60061 -67.12308 2297 ft 168 kts 88°
2026-04-30 14:28 10.60096 -67.11118 2078 ft 168 kts 88°
2026-04-30 14:29 10.60165 -67.08758 1638 ft 167 kts 88°
2026-04-30 14:29 10.60222 -67.06824 1268 ft 157 kts 88°
2026-04-30 14:30 10.60330 -67.03209 608 ft 154 kts 88°
2026-04-30 14:31 10.60383 -67.01090 213 ft 145 kts 88°
2026-04-30 14:31 10.60426 -66.99529 172 ft 69 kts 87°
2026-04-30 14:31 10.60444 -66.99036 147 ft 69 kts 88°
2026-04-30 14:32 10.60466 -66.98202 123 ft 38 kts 91°
2026-04-30 14:32 10.60493 -66.98088 117 ft 11 kts 17°
2026-04-30 14:32 10.60510 -66.98134 120 ft 10 kts 235°
2026-04-30 14:33 10.60481 -66.98195 123 ft 10 kts 257°
2026-04-30 14:33 10.60472 -66.98331 127 ft 10 kts 266°
2026-04-30 14:33 10.60468 -66.98399 128 ft 10 kts 269°
2026-04-30 14:34 10.60467 -66.98495 131 ft 23 kts 269°
2026-04-30 14:34 10.60417 -66.98660 137 ft 25 kts 238°
2026-04-30 14:34 10.60325 -66.98811 153 ft 25 kts 238°
2026-04-30 14:34 10.60283 -66.98980 152 ft 28 kts 270°
2026-04-30 14:35 10.60271 -66.99419 162 ft 36 kts 268°
2026-04-30 14:35 10.60247 -66.99649 176 ft 19 kts 229°
2026-04-30 14:35 10.60144 -66.99714 179 ft 18 kts 249°
2026-04-30 14:36 10.60138 -66.99842 183 ft 18 kts 269°
2026-04-30 14:36 10.60124 -66.99983 185 ft 23 kts 264°
2026-04-30 14:36 10.60118 -67.00148 183 ft 23 kts 269°
2026-04-30 14:36 10.60094 -67.00285 186 ft 15 kts 223°
2026-04-30 14:37 10.60012 -67.00324 187 ft 14 kts 249°
2026-04-30 14:37 10.60051 -67.00370 187 ft 11 kts
2026-04-30 14:37 10.60125 -67.00370 187 ft 8 kts 358°
2026-04-30 14:37 10.60131 -67.00370 187 ft 0 kts 358°